Weather History for CWSS - October, 2011

Change the Weather History Date:

Saturday, October 22, 2011

  Actual Average Record
Temperature  
Mean Temperature 46 °F -  
Max Temperature 55 °F - - ()
Min Temperature 37 °F - - ()
Degree Days  
Heating Degree Days 19    
Moisture  
Dew Point 44 °F    
Average Humidity 91    
Maximum Humidity 98    
Minimum Humidity 71    
Precipitation  
Precipitation 0.00 in - - ()
Sea Level Pressure  
Sea Level Pressure 29.93 in    
Wind  
Wind Speed 1 mph ()    
Max Wind Speed 2 mph    
Max Gust Speed -    
T = Trace of Precipitation, MM = Missing Value Source: Averaged Metar Reports

Daily Weather History Graph

Daily Weather History Graph

Search for Another Location

Airport or City:

Trip Planner

Search our weather history database for the weather conditions in past years. The results will help you decide how hot, cold, wet, or windy it might be!

Date:

Astronomy

Oct. 22, 2011 Rise Set
Actual Time 7:53 AM ADT 6:32 PM ADT
Civil Twilight 7:23 AM ADT 7:02 PM ADT
Nautical Twilight 6:49 AM ADT 7:36 PM ADT
Astronomical Twilight 6:15 AM ADT 8:10 PM ADT
Moon 2:33 AM ADT (10/22) 3:59 PM ADT (10/22)
Length of Visible Light 11h 38m
Length of Day
10h 38m
Waning Crescent, 24% of the Moon is Illuminated
Oct 22
Waning Crescent
Oct 26
New
Nov 2
First Quarter
Nov 10
Full
Nov 18
Last Quarter

Hourly Weather History & Observations

Time (ADT) Temp. Dew Point Humidity Pressure Visibility Wind Dir Wind Speed Gust Speed Precip Events Conditions
12:00 AM 40 °F 39 °F 96% 29.87 in - North 1.2 mph - -  
12:00 AM 40.1 °F 39.2 °F 97% 29.87 in - North 1.2 mph - N/A   Unknown
2:00 AM 37.8 °F 37.2 °F 98% 29.90 in - Calm Calm - N/A   Unknown
3:00 AM 39 °F 38 °F 96% 29.91 in - Calm Calm - -  
3:00 AM 38.8 °F 38.3 °F 98% 29.91 in - Calm Calm - N/A   Unknown
5:00 AM 37.4 °F 36.9 °F 98% 29.92 in - Calm Calm - N/A   Unknown
6:00 AM 40 °F 40 °F 98% 29.93 in - Calm Calm - -  
7:00 AM 41.0 °F 40.5 °F 98% 29.93 in - Calm Calm - N/A   Unknown
8:00 AM 40.5 °F 39.9 °F 98% 29.94 in - NE 1.2 mph - N/A   Unknown
9:00 AM 43 °F 42 °F 95% 29.96 in - Calm Calm - -  
9:00 AM 42.6 °F 42.1 °F 98% 29.96 in - Calm Calm - N/A   Unknown
10:00 AM 45.5 °F 45.0 °F 98% 29.95 in - ESE 1.2 mph - N/A   Unknown
11:00 AM 47.8 °F 46.6 °F 95% 29.96 in - Calm Calm - N/A   Unknown
12:00 PM 49 °F 47 °F 92% 29.96 in - Calm Calm - -  
12:00 PM 49.5 °F 47.5 °F 93% 29.96 in - Calm Calm - N/A   Unknown
1:00 PM 51.1 °F 48.2 °F 90% 29.95 in - East 1.2 mph - N/A   Unknown
2:00 PM 52.0 °F 47.8 °F 86% 29.93 in - East 1.2 mph - N/A   Unknown
3:00 PM 54 °F 48 °F 74% 29.92 in - ENE 1.2 mph - -  
3:00 PM 53.6 °F 48.0 °F 81% 29.92 in - ENE 1.2 mph - N/A   Unknown
4:00 PM 54.3 °F 48.6 °F 81% 29.92 in - Calm Calm - N/A   Unknown
5:00 PM 54.7 °F 48.2 °F 79% 29.92 in - West 1.2 mph - N/A   Unknown
6:00 PM 54 °F 47 °F 71% 29.93 in - West 2.3 mph - -  
6:00 PM 53.8 °F 47.3 °F 79% 29.93 in - West 2.3 mph - N/A   Unknown
7:00 PM 51.3 °F 46.9 °F 85% 29.94 in - NNW 1.2 mph - N/A   Unknown
8:00 PM 49.6 °F 46.9 °F 90% 29.95 in - Calm Calm - N/A   Unknown
9:00 PM 49 °F 47 °F 90% 29.96 in - West 1.2 mph - -  
9:00 PM 49.1 °F 46.9 °F 92% 29.96 in - West 1.2 mph - N/A   Unknown
10:00 PM 48.0 °F 46.6 °F 95% 29.97 in - WSW 1.2 mph - N/A   Unknown
11:00 PM 47.7 °F 46.4 °F 95% 29.98 in - West 1.2 mph - N/A   Unknown